Time,TemperatureF,DewpointF,PressureIn,WindDirection,WindDirectionDegrees,WindSpeedMPH,WindSpeedGustMPH,Humidity,HourlyPrecipIn,Conditions,Clouds,dailyrainin,SoftwareType,DateUTC
2013-04-15 00:13:00,63.8,51.0,29.64,SSW,194,8.0,17.0,64,0.00,,,0.00,weatherlink.com 1.10,2013-04-15 05:13:00,
2013-04-15 00:28:00,63.9,51.0,29.64,SSE,164,3.0,22.0,63,0.00,,,0.00,weatherlink.com 1.10,2013-04-15 05:28:00,
2013-04-15 00:43:00,64.0,50.0,29.65,South,189,9.0,19.0,61,0.00,,,0.00,weatherlink.com 1.10,2013-04-15 05:43:00,
2013-04-15 00:58:00,63.7,50.0,29.64,South,173,7.0,18.0,61,0.00,,,0.00,weatherlink.com 1.10,2013-04-15 05:58:00,
2013-04-15 01:13:00,62.9,50.0,29.66,SSE,161,9.0,17.0,63,0.00,,,0.00,weatherlink.com 1.10,2013-04-15 06:13:00,
2013-04-15 01:28:00,60.0,52.0,29.68,SSW,210,7.0,17.0,75,0.03,,,0.03,weatherlink.com 1.10,2013-04-15 06:28:00,
2013-04-15 01:43:00,57.6,52.0,29.71,SW,236,3.0,15.0,82,0.06,,,0.06,weatherlink.com 1.10,2013-04-15 06:43:00,
2013-04-15 01:58:00,56.7,52.0,29.70,South,183,3.0,12.0,85,0.08,,,0.08,weatherlink.com 1.10,2013-04-15 06:58:00,
2013-04-15 02:44:00,55.5,52.0,29.69,SSE,164,5.0,8.0,88,0.05,,,0.11,weatherlink.com 1.10,2013-04-15 07:44:00,
2013-04-15 02:59:00,56.0,52.0,29.70,SE,124,3.0,10.0,86,0.03,,,0.11,weatherlink.com 1.10,2013-04-15 07:59:00,
2013-04-15 03:14:00,56.1,52.0,29.70,SSE,163,3.0,9.0,87,0.02,,,0.11,weatherlink.com 1.10,2013-04-15 08:14:00,
2013-04-15 03:29:00,56.1,52.0,29.69,South,181,4.0,12.0,87,0.01,,,0.11,weatherlink.com 1.10,2013-04-15 08:29:00,
2013-04-15 03:44:00,56.0,52.0,29.70,SSW,192,7.0,13.0,87,0.00,,,0.11,weatherlink.com 1.10,2013-04-15 08:44:00,
2013-04-15 03:59:00,55.7,52.0,29.72,SSE,153,4.0,8.0,88,0.00,,,0.11,weatherlink.com 1.10,2013-04-15 08:59:00,
2013-04-15 04:14:00,55.0,53.0,29.72,South,179,3.0,9.0,91,0.01,,,0.12,weatherlink.com 1.10,2013-04-15 09:14:00,
2013-04-15 04:29:00,54.3,52.0,29.73,North,355,2.0,7.0,93,0.02,,,0.13,weatherlink.com 1.10,2013-04-15 09:29:00,
2013-04-15 04:44:00,54.1,53.0,29.75,SW,224,0.0,6.0,94,0.02,,,0.13,weatherlink.com 1.10,2013-04-15 09:44:00,
2013-04-15 04:59:00,54.0,53.0,29.75,SSW,197,0.0,5.0,95,0.02,,,0.13,weatherlink.com 1.10,2013-04-15 09:59:00,
2013-04-15 05:14:00,53.8,52.0,29.74,SSE,166,0.0,4.0,95,0.01,,,0.13,weatherlink.com 1.10,2013-04-15 10:14:00,
2013-04-15 05:29:00,53.6,52.0,29.74,South,183,0.0,3.0,95,0.00,,,0.13,weatherlink.com 1.10,2013-04-15 10:29:00,
2013-04-15 05:44:00,53.3,52.0,29.74,SSW,209,1.0,3.0,95,0.00,,,0.13,weatherlink.com 1.10,2013-04-15 10:44:00,
2013-04-15 05:59:00,53.0,52.0,29.74,SSE,152,1.0,4.0,96,0.00,,,0.13,weatherlink.com 1.10,2013-04-15 10:59:00,
2013-04-15 06:14:00,52.9,52.0,29.75,South,172,3.0,3.0,96,0.00,,,0.13,weatherlink.com 1.10,2013-04-15 11:14:00,
2013-04-15 06:29:00,53.0,52.0,29.75,SE,139,1.0,5.0,96,0.00,,,0.13,weatherlink.com 1.10,2013-04-15 11:29:00,
2013-04-15 06:44:00,53.0,52.0,29.75,SSW,204,2.0,4.0,96,0.00,,,0.13,weatherlink.com 1.10,2013-04-15 11:44:00,
2013-04-15 06:59:00,53.1,52.0,29.76,SSW,192,1.0,4.0,96,0.00,,,0.13,weatherlink.com 1.10,2013-04-15 11:59:00,
2013-04-15 07:14:00,53.1,52.0,29.76,SSE,158,0.0,3.0,96,0.00,,,0.13,weatherlink.com 1.10,2013-04-15 12:14:00,
2013-04-15 07:29:00,53.4,52.0,29.76,South,171,1.0,4.0,96,0.00,,,0.13,weatherlink.com 1.10,2013-04-15 12:29:00,
2013-04-15 07:44:00,53.9,53.0,29.75,South,171,2.0,6.0,96,0.00,,,0.13,weatherlink.com 1.10,2013-04-15 12:44:00,
2013-04-15 08:14:00,54.2,53.0,29.75,SSW,205,2.0,5.0,95,0.00,,,0.13,weatherlink.com 1.10,2013-04-15 13:14:00,
2013-04-15 08:29:00,54.5,53.0,29.76,SSW,209,0.0,7.0,95,0.00,,,0.13,weatherlink.com 1.10,2013-04-15 13:29:00,
2013-04-15 08:44:00,54.4,53.0,29.76,SSW,197,5.0,5.0,95,0.00,,,0.13,weatherlink.com 1.10,2013-04-15 13:44:00,
2013-04-15 08:59:00,54.7,54.0,29.77,South,185,1.0,7.0,96,0.00,,,0.13,weatherlink.com 1.10,2013-04-15 13:59:00,
2013-04-15 09:14:00,55.0,54.0,29.78,SW,225,1.0,6.0,95,0.00,,,0.13,weatherlink.com 1.10,2013-04-15 14:14:00,
2013-04-15 09:29:00,55.0,54.0,29.78,South,191,3.0,7.0,95,0.00,,,0.13,weatherlink.com 1.10,2013-04-15 14:29:00,
2013-04-15 09:44:00,54.8,54.0,29.79,SW,217,0.0,10.0,96,0.00,,,0.13,weatherlink.com 1.10,2013-04-15 14:44:00,
2013-04-15 09:59:00,55.2,54.0,29.79,SW,228,1.0,7.0,96,0.00,,,0.13,weatherlink.com 1.10,2013-04-15 14:59:00,
2013-04-15 10:14:00,55.9,55.0,29.78,WSW,238,2.0,6.0,96,0.00,,,0.13,weatherlink.com 1.10,2013-04-15 15:14:00,
2013-04-15 10:29:00,56.7,55.0,29.78,SE,146,3.0,7.0,94,0.00,,,0.13,weatherlink.com 1.10,2013-04-15 15:29:00,
2013-04-15 10:44:00,57.1,54.0,29.79,WSW,240,2.0,9.0,90,0.00,,,0.13,weatherlink.com 1.10,2013-04-15 15:44:00,
2013-04-15 10:59:00,57.6,54.0,29.79,WSW,255,4.0,10.0,89,0.00,,,0.13,weatherlink.com 1.10,2013-04-15 15:59:00,
2013-04-15 11:14:00,58.2,54.0,29.79,SW,221,6.0,9.0,87,0.00,,,0.13,weatherlink.com 1.10,2013-04-15 16:14:00,
2013-04-15 11:29:00,58.6,55.0,29.79,NNW,342,3.0,12.0,87,0.00,,,0.13,weatherlink.com 1.10,2013-04-15 16:29:00,
2013-04-15 11:44:00,59.3,55.0,29.79,SW,233,1.0,9.0,85,0.00,,,0.13,weatherlink.com 1.10,2013-04-15 16:44:00,
2013-04-15 11:59:00,60.1,55.0,29.79,SW,225,3.0,8.0,84,0.00,,,0.13,weatherlink.com 1.10,2013-04-15 16:59:00,
2013-04-15 12:14:00,61.1,56.0,29.79,West,259,3.0,9.0,82,0.00,,,0.13,weatherlink.com 1.10,2013-04-15 17:14:00,
2013-04-15 12:29:00,61.8,55.0,29.79,SSW,208,4.0,9.0,79,0.00,,,0.13,weatherlink.com 1.10,2013-04-15 17:29:00,
2013-04-15 12:44:00,62.6,55.0,29.79,WSW,238,3.0,12.0,76,0.00,,,0.13,weatherlink.com 1.10,2013-04-15 17:44:00,
2013-04-15 12:59:00,62.7,54.0,29.79,WSW,242,5.0,12.0,73,0.00,,,0.13,weatherlink.com 1.10,2013-04-15 17:59:00,
2013-04-15 13:14:00,62.8,54.0,29.79,SSW,198,8.0,13.0,74,0.00,,,0.13,weatherlink.com 1.10,2013-04-15 18:14:00,
2013-04-15 13:29:00,63.3,54.0,29.80,WSW,258,5.0,17.0,71,0.00,,,0.13,weatherlink.com 1.10,2013-04-15 18:29:00,
2013-04-15 13:44:00,62.5,53.0,29.80,SW,218,4.0,14.0,71,0.00,,,0.13,weatherlink.com 1.10,2013-04-15 18:44:00,
2013-04-15 13:59:00,62.5,53.0,29.80,West,261,4.0,9.0,72,0.00,,,0.13,weatherlink.com 1.10,2013-04-15 18:59:00,
2013-04-15 14:14:00,62.4,53.0,29.82,West,273,2.0,11.0,72,0.00,,,0.13,weatherlink.com 1.10,2013-04-15 19:14:00,
2013-04-15 14:30:00,62.1,53.0,29.82,West,260,7.0,11.0,73,0.00,,,0.13,weatherlink.com 1.10,2013-04-15 19:30:00,
2013-04-15 14:44:00,62.4,51.0,29.82,SW,230,5.0,12.0,66,0.00,,,0.13,weatherlink.com 1.10,2013-04-15 19:44:00,
2013-04-15 14:59:00,62.3,51.0,29.81,SSW,213,3.0,9.0,67,0.00,,,0.13,weatherlink.com 1.10,2013-04-15 19:59:00,
2013-04-15 15:14:00,61.7,50.0,29.81,WNW,297,1.0,15.0,65,0.00,,,0.13,weatherlink.com 1.10,2013-04-15 20:14:00,
2013-04-15 15:30:00,60.8,45.0,29.83,West,261,1.0,11.0,57,0.00,,,0.00,weatherlink.com 1.10,2013-04-15 20:30:00,
2013-04-15 15:45:00,59.3,44.0,29.83,West,261,5.0,11.0,58,0.00,,,0.00,weatherlink.com 1.10,2013-04-15 20:45:00,
2013-04-15 16:00:00,58.9,44.0,29.84,West,268,2.0,11.0,59,0.00,,,0.00,weatherlink.com 1.10,2013-04-15 21:00:00,
2013-04-15 16:15:00,56.6,46.0,29.86,NNW,341,4.0,9.0,68,0.00,,,0.00,weatherlink.com 1.10,2013-04-15 21:15:00,
2013-04-15 16:30:00,55.4,45.0,29.86,NW,304,2.0,7.0,67,0.00,,,0.00,weatherlink.com 1.10,2013-04-15 21:30:00,
2013-04-15 16:45:00,54.1,45.0,29.87,NW,306,1.0,7.0,70,0.00,,,0.00,weatherlink.com 1.10,2013-04-15 21:45:00,
2013-04-15 17:00:00,53.0,43.0,29.87,NW,318,1.0,7.0,69,0.00,,,0.00,weatherlink.com 1.10,2013-04-15 22:00:00,
2013-04-15 17:15:00,52.6,43.0,29.87,NW,304,6.0,6.0,71,0.00,,,0.00,weatherlink.com 1.10,2013-04-15 22:15:00,
2013-04-15 17:30:00,52.2,44.0,29.86,NW,322,1.0,7.0,73,0.00,,,0.00,weatherlink.com 1.10,2013-04-15 22:30:00,
2013-04-15 17:45:00,52.1,45.0,29.87,West,264,0.0,4.0,76,0.01,,,0.01,weatherlink.com 1.10,2013-04-15 22:45:00,
2013-04-15 18:00:00,51.7,44.0,29.87,NNW,331,0.0,4.0,76,0.01,,,0.01,weatherlink.com 1.10,2013-04-15 23:00:00,
2013-04-15 18:15:00,51.4,45.0,29.87,NNW,348,0.0,3.0,80,0.01,,,0.01,weatherlink.com 1.10,2013-04-15 23:15:00,
2013-04-15 18:30:00,50.7,46.0,29.86,NNW,348,2.0,2.0,83,0.01,,,0.01,weatherlink.com 1.10,2013-04-15 23:30:00,
2013-04-15 18:45:00,49.9,44.0,29.88,NW,321,2.0,6.0,80,0.00,,,0.01,weatherlink.com 1.10,2013-04-15 23:45:00,
2013-04-15 19:00:00,49.4,44.0,29.88,NNW,344,0.0,1.0,83,0.00,,,0.01,weatherlink.com 1.10,2013-04-16 00:00:00,
2013-04-15 19:15:00,48.9,45.0,29.88,North,350,0.0,1.0,86,0.01,,,0.02,weatherlink.com 1.10,2013-04-16 00:15:00,
2013-04-15 19:30:00,48.0,44.0,29.89,NW,312,3.0,3.0,86,0.01,,,0.02,weatherlink.com 1.10,2013-04-16 00:30:00,
2013-04-15 19:45:00,47.0,42.0,29.90,West,276,0.0,4.0,84,0.02,,,0.03,weatherlink.com 1.10,2013-04-16 00:45:00,
2013-04-15 20:00:00,46.1,43.0,29.90,NW,322,0.0,3.0,87,0.03,,,0.04,weatherlink.com 1.10,2013-04-16 01:00:00,
2013-04-15 20:15:00,45.4,43.0,29.90,WNW,297,0.0,3.0,90,0.04,,,0.06,weatherlink.com 1.10,2013-04-16 01:15:00,
2013-04-15 20:30:00,44.9,43.0,29.92,WNW,288,0.0,2.0,91,0.04,,,0.06,weatherlink.com 1.10,2013-04-16 01:30:00,
2013-04-15 20:45:00,44.7,42.0,29.94,West,263,2.0,6.0,91,0.05,,,0.08,weatherlink.com 1.10,2013-04-16 01:45:00,
2013-04-15 21:01:00,44.6,43.0,29.94,West,263,0.0,1.0,92,0.04,,,0.09,weatherlink.com 1.10,2013-04-16 02:01:00,
2013-04-15 21:16:00,44.5,43.0,29.95,West,265,0.0,1.0,93,0.03,,,0.09,weatherlink.com 1.10,2013-04-16 02:16:00,
2013-04-15 21:31:00,44.4,43.0,29.95,WNW,282,0.0,2.0,93,0.03,,,0.09,weatherlink.com 1.10,2013-04-16 02:31:00,
2013-04-15 21:46:00,44.3,42.0,29.97,WSW,250,3.0,4.0,92,0.03,,,0.11,weatherlink.com 1.10,2013-04-16 02:46:00,
2013-04-15 22:00:00,44.0,42.0,29.97,NNW,334,2.0,4.0,92,0.02,,,0.11,weatherlink.com 1.10,2013-04-16 03:00:00,
2013-04-15 22:15:00,43.4,41.0,29.98,West,261,0.0,5.0,91,0.03,,,0.12,weatherlink.com 1.10,2013-04-16 03:15:00,
2013-04-15 22:30:00,43.3,41.0,29.98,NNW,329,0.0,4.0,92,0.04,,,0.13,weatherlink.com 1.10,2013-04-16 03:30:00,
2013-04-15 22:45:00,43.2,41.0,29.98,WNW,302,3.0,3.0,93,0.03,,,0.14,weatherlink.com 1.10,2013-04-16 03:45:00,
2013-04-15 23:00:00,42.7,41.0,29.98,West,273,1.0,4.0,92,0.04,,,0.15,weatherlink.com 1.10,2013-04-16 04:00:00,
2013-04-15 23:15:00,42.6,41.0,29.98,WSW,238,0.0,3.0,93,0.03,,,0.15,weatherlink.com 1.10,2013-04-16 04:15:00,
2013-04-15 23:30:00,42.7,41.0,29.98,WSW,238,0.0,2.0,94,0.02,,,0.15,weatherlink.com 1.10,2013-04-16 04:30:00,
2013-04-15 23:45:00,42.7,41.0,29.99,West,264,1.0,3.0,94,0.01,,,0.15,weatherlink.com 1.10,2013-04-16 04:45:00,